Location: Althorst
(53.6379°N, 10.7715°E)
Time: 07:45:07
(UTC+00:00)

COSMOS 2428 - Pass Details

Date: 10 December 2019
Orbit: 844 x 858 km, 70.9° (Epoch: 28 January)

Event Time Altitude Azimuth Distance (km) Brightness Sun altitude
Rises 18:25:22 0° 259° (W) 3,406 7.0 -29.4°
Reaches altitude 10° 18:28:16 10° 273° (W) 2,476 6.1 -29.8°
Maximum altitude 18:32:53 25° 327° (NNW) 1,666 4.5 -30.5°
Enters shadow 18:34:39 21° 354° (N) 1,810 4.4 -30.8°
